[[{"header":{"parameterUnit":"m.s-1","parameterCategory":1,"la1":30.2991,"la2":30.254,"lo1":-89.0895,"lo2":-89.0444,"dy":0.0017,"dx":0.0017,"nx":28,"ny":28,"refTime":"2025-07-23T21:00:00:Z","depth":0,"parameterNumber":2,"parameterNumberName":"U-component_of_WINDS"},"data":[0,0,0,0,0,0,0,0,0,0,0,0,0,0,0,0,0,0,0,0,0,0,0,0,0,0,0,0,0,0,0,0,0,0,0,0,0,0,0,0,0,0,0,0,0,0,0,0,0,0,0,0,0,0,0,0,0,0,-1.961,-1.9611,0,-1.9732,-1.9734,-1.9735,-1.9868,-1.987,-1.9872,-1.9874,-1.9995,-1.9997,-1.9998,0,0,0,0,0,0,0,0,0,0,0,0,0,-1.9492,-1.9493,-1.961,-1.9612,-1.9613,-1.9732,-1.9734,-1.9735,-1.9868,-1.987,-1.9873,-1.9875,-1.9995,-1.9997,-1.9998,0,0,0,0,0,0,0,0,0,0,0,0,0,-1.9571,-1.9493,-1.961,-1.9694,-1.9702,-1.9732,-1.9734,-1.9736,-1.9867,-1.987,-1.9873,-1.9876,-1.9994,-1.9996,-1.9999,-1.9954,0,0,-2.0005,-2.0006,0,0,0,0,0,0,0,0,-1.9566,-1.9575,-1.968,-1.9688,-1.9698,-1.9788,-1.9737,-1.9809,-1.9867,-1.9805,-1.9874,-1.9877,-1.9924,-1.9932,-1.9948,-1.996,-1.9965,-2.0005,-2.0007,-2.0008,-2.0008,0,0,0,0,0,0,0,-1.9561,-1.9571,-1.9658,-1.9681,-1.9692,-1.9725,-1.974,-1.9751,-1.9846,-1.981,-1.982,-1.9833,-1.9929,-1.9946,-1.9952,-1.9967,-2.0005,-2.0007,-2.0009,-2.0009,-1.9951,-1.9948,0,0,0,0,0,0,-1.9543,-1.9565,-1.9654,-1.9662,-1.9638,-1.9725,-1.9741,-1.9756,-1.9847,-1.9863,-1.983,-1.9839,-1.9941,-1.995,-1.9957,-1.9912,-2.0008,-2.001,-2.0011,-1.9953,-1.995,-1.9947,0,0,0,0,0,0,-1.954,-1.9549,-1.965,-1.9617,-1.9632,-1.9724,-1.974,-1.9757,-1.9774,-1.9862,-1.988,-1.983,-1.9944,-1.9954,-1.9955,-1.9918,-2.0011,-2.0013,-1.9957,-1.9952,-1.9948,-1.982,0,0,0,0,0,0,-1.9536,-1.9547,-1.9531,-1.9615,-1.9633,-1.9644,-1.9737,-1.9757,-1.9778,-1.979,-1.9866,-1.9882,-1.9947,-1.9951,-1.9957,-1.9922,-2.0014,-1.996,-1.9955,-1.995,-1.9827,-1.9812,-1.9798,0,0,0,0,0,-1.9531,-1.9489,-1.9529,-1.9539,-1.9615,-1.9642,-1.9652,-1.9729,-1.9774,-1.9758,-1.9816,-1.9879,-1.9922,-1.995,-1.9958,-1.9923,-1.9963,-1.9956,-1.995,-1.9834,-1.9815,-1.9798,0,0,0,0,0,0,-1.9395,-1.9501,-1.9547,-1.9531,-1.9577,-1.9664,-1.9647,-1.9705,-1.9738,-1.9748,-1.9841,-1.9857,-1.9847,-1.9886,-1.9915,-1.9887,-1.9952,-1.9946,-1.9861,-1.9843,-1.9828,-1.9818,-2.0016,0,0,0,0,0,-1.9364,-1.9378,-1.947,-1.9446,-1.9467,-1.9553,-1.9568,-1.9624,-1.9674,-1.9694,-1.9751,-1.9797,-1.9821,-1.9835,-1.9862,-1.9835,-1.9854,-1.9816,-1.9801,-1.9789,-1.9782,-1.9773,-1.9757,-1.9926,-1.9926,-1.9926,0,0,-1.9298,-1.9358,-1.9361,-1.9421,-1.9463,-1.9475,-1.9568,-1.9577,-1.9587,-1.9695,-1.9699,-1.9743,-1.9801,-1.9788,-1.9785,-1.982,-1.9741,-1.978,-1.977,-1.977,-1.9764,-1.9748,-1.9734,-1.9921,-1.9922,-1.9923,0,0,-1.9185,-1.9232,-1.9218,-1.9259,-1.9323,-1.9381,-1.9378,-1.9458,-1.9491,-1.9498,-1.958,-1.9594,-1.9633,-1.9672,-1.9696,-1.9602,-1.9662,-1.9609,-1.9529,-1.9519,-1.9506,-1.9495,-1.9461,-1.9448,-1.9603,-1.9602,-1.9602,0,-1.9095,-1.9117,-1.9203,-1.9208,-1.9233,-1.9334,-1.9321,-1.9357,-1.9425,-1.9439,-1.9478,-1.9532,-1.9578,-1.9576,-1.9554,-1.9571,-1.957,-1.9599,-1.9501,-1.9491,-1.9481,-1.945,-1.9437,-1.9595,-1.9596,-1.9597,-1.9598,0,-1.9004,-1.9018,-1.9,-1.9065,-1.9088,-1.9084,-1.917,-1.9183,-1.9238,-1.9292,-1.9298,-1.9358,-1.94,-1.9404,-1.9457,-1.9411,-1.9431,-1.9484,-1.9551,-1.9457,-1.9429,-1.9418,-1.9585,-1.9588,-1.959,-1.9592,0,0,-1.8804,-1.8921,-1.8912,-1.8944,-1.9024,-1.9036,-1.9038,-1.9081,-1.909,-1.9135,-1.9138,-1.9172,-1.9223,-1.9251,-1.931,-1.9301,-1.9223,-1.9356,-1.9359,-1.9328,-1.9177,-1.9135,-1.912,-1.9265,-1.9263,-1.9262,-1.9172,0,-1.8704,-1.8712,-1.8792,-1.8778,-1.8793,-1.8892,-1.8894,-1.8943,-1.8994,-1.9015,-1.9073,-1.9094,-1.916,-1.9178,-1.9174,-1.9233,-1.9194,-1.9241,-1.9268,-1.9268,-1.9248,-1.9106,-1.9061,-1.8973,-1.9162,-1.916,-1.9159,0,-1.8586,-1.8627,-1.8614,-1.8697,-1.8706,-1.8706,-1.8753,-1.8772,-1.883,-1.8869,-1.8902,-1.897,-1.8978,-1.9043,-1.9056,-1.9086,-1.9103,-1.9134,-1.9133,-1.9136,-1.9206,-1.9104,-1.8947,-1.8933,-1.9143,-1.9144,-1.9145,0,-1.8441,-1.8492,-1.8493,-1.8517,-1.8613,-1.8611,-1.8651,-1.8713,-1.8734,-1.8776,-1.8791,-1.8832,-1.8854,-1.8885,-1.8962,-1.9002,-1.8966,-1.9037,-1.8998,-1.8996,-1.8983,-1.8982,-1.8825,-1.8996,-1.8997,-1.8997,-1.8997,0,-1.832,-1.8308,-1.8429,-1.8428,-1.8419,-1.8512,-1.85,-1.855,-1.8605,-1.8616,-1.8705,-1.8713,-1.8816,-1.8837,-1.8898,-1.8899,-1.8909,-1.894,-1.8956,-1.8931,-1.8927,-1.8941,-1.8949,-1.8994,-1.8994,-1.8995,-1.8996,0,-1.8154,-1.8235,-1.8241,-1.8334,-1.8357,-1.8346,-1.8425,-1.8428,-1.8488,-1.8501,-1.851,-1.8602,-1.8631,-1.8713,-1.8762,-1.8803,-1.8787,-1.8818,-1.8767,-1.8777,-1.8733,-1.8735,-1.8577,-1.8561,-1.8743,-1.8742,-1.874,0,-1.807,-1.8064,-1.8157,-1.8171,-1.8208,-1.823,-1.8254,-1.8346,-1.8367,-1.8435,-1.8431,-1.8468,-1.8502,-1.8545,-1.8616,-1.8655,-1.8687,-1.8629,-1.8693,-1.8669,-1.8685,-1.8684,-1.8684,-1.8614,-1.8611,-1.8609,-1.8608,0,-1.7913,-1.7954,-1.7984,-1.8029,-1.8055,-1.8095,-1.814,-1.8147,-1.8251,-1.8269,-1.8302,-1.8328,-1.8381,-1.8416,-1.8468,-1.851,-1.8575,-1.8588,-1.8581,-1.8554,-1.8524,-1.8539,-1.8727,-1.859,-1.8592,-1.8593,-1.8594,-1.8595,-1.7785,-1.7785,-1.7851,-1.7883,-1.7927,-1.7967,-1.7976,-1.8038,-1.8066,-1.8117,-1.817,-1.8196,-1.8259,-1.8335,-1.8372,-1.8395,-1.8429,-1.8419,-1.8416,-1.8411,-1.84,-1.8522,-1.8404,-1.8405,-1.8406,-1.8406,-1.8407,0,-1.7632,-1.768,-1.7709,-1.777,-1.7795,-1.7858,-1.7912,-1.7928,-1.7951,-1.8004,-1.8037,-1.8074,-1.811,-1.8186,-1.8229,-1.8233,-1.8264,-1.8241,-1.824,-1.8249,-1.8366,-1.8368,-1.8215,-1.8215,-1.8215,-1.8215,-1.8215,-1.8215,-1.7555,-1.7558,-1.7608,-1.7635,-1.7684,-1.7711,-1.7736,-1.7774,-1.7818,-1.7856,-1.7887,-1.7937,-1.8,-1.8049,-1.8085,-1.8107,-1.8118,-1.8084,-1.8115,-1.8223,-1.8241,-1.8258,-1.826,-1.8086,-1.8086,-1.7996,-1.7995,-1.7995]},{"header":{"parameterUnit":"m.s-1","parameterCategory":1,"la1":30.2991,"la2":30.254,"lo1":-89.0895,"lo2":-89.0444,"dy":0.0017,"dx":0.0017,"nx":28,"ny":28,"refTime":"2025-07-23T21:00:00:Z","depth":0,"parameterNumber":3,"parameterNumberName":"V-component_of_WINDS"},"data":[0,0,0,0,0,0,0,0,0,0,0,0,0,0,0,0,0,0,0,0,0,0,0,0,0,0,0,0,0,0,0,0,0,0,0,0,0,0,0,0,0,0,0,0,0,0,0,0,0,0,0,0,0,0,0,0,0,0,4.7283,4.7284,0,4.7346,4.7347,4.7347,4.7332,4.7331,4.733,4.7329,4.7385,4.7388,4.7391,0,0,0,0,0,0,0,0,0,0,0,0,0,4.7144,4.7147,4.7283,4.7284,4.7285,4.7346,4.7347,4.7348,4.7332,4.7331,4.7329,4.7328,4.7385,4.7388,4.7391,0,0,0,0,0,0,0,0,0,0,0,0,0,4.7205,4.7147,4.7283,4.7285,4.7286,4.7346,4.7347,4.7348,4.7333,4.7331,4.7329,4.7327,4.7384,4.7387,4.7391,4.7451,0,0,4.7403,4.7405,0,0,0,0,0,0,0,0,4.7202,4.721,4.7284,4.7285,4.7286,4.733,4.7318,4.7382,4.7333,4.7315,4.7329,4.7326,4.7368,4.7373,4.7388,4.7454,4.7456,4.7404,4.7406,4.7408,4.7409,0,0,0,0,0,0,0,4.7197,4.7207,4.7308,4.7285,4.7286,4.728,4.7287,4.733,4.735,4.7316,4.7315,4.7323,4.7368,4.7385,4.7389,4.7457,4.7403,4.7407,4.7409,4.7411,4.7574,4.7575,0,0,0,0,0,0,4.7193,4.7204,4.7306,4.731,4.7239,4.7284,4.7292,4.7317,4.735,4.7353,4.7325,4.7322,4.7379,4.7385,4.7391,4.7462,4.7408,4.7411,4.7414,4.7572,4.7574,4.7576,0,0,0,0,0,0,4.719,4.7203,4.7303,4.7257,4.7269,4.7289,4.7317,4.7319,4.7336,4.7356,4.7359,4.7338,4.7378,4.7386,4.7437,4.7464,4.7413,4.7417,4.7569,4.7572,4.7575,4.7606,0,0,0,0,0,0,4.7186,4.7202,4.7226,4.7258,4.7272,4.735,4.7319,4.7322,4.7344,4.7341,4.737,4.7373,4.7377,4.7431,4.7441,4.7469,4.742,4.7567,4.7571,4.7574,4.7602,4.7609,4.7616,0,0,0,0,0,4.7182,4.7231,4.7228,4.724,4.7303,4.7351,4.7359,4.7365,4.7346,4.737,4.7383,4.7372,4.746,4.7436,4.7447,4.7477,4.7565,4.757,4.7574,4.7599,4.7608,4.7615,0,0,0,0,0,0,4.7199,4.7235,4.7232,4.7293,4.732,4.7349,4.7379,4.7374,4.7404,4.74,4.7404,4.741,4.7462,4.7475,4.7447,4.7536,4.751,4.7516,4.7525,4.7534,4.754,4.7535,4.7423,0,0,0,0,0,4.7211,4.725,4.7278,4.7329,4.7343,4.7359,4.738,4.7382,4.7409,4.7419,4.7436,4.746,4.7493,4.7514,4.7546,4.7605,4.761,4.7631,4.7637,4.7643,4.7648,4.7678,4.7687,4.7591,4.7591,4.759,0,0,4.7234,4.7259,4.7282,4.7334,4.7354,4.7392,4.7368,4.7409,4.7436,4.7424,4.7473,4.7487,4.7514,4.7569,4.7594,4.7581,4.7676,4.7648,4.7652,4.7654,4.7684,4.7693,4.7701,4.7594,4.7593,4.7593,0,0,4.7296,4.7319,4.7364,4.7386,4.7419,4.7429,4.744,4.7471,4.7479,4.753,4.7522,4.7553,4.761,4.763,4.7647,4.7717,4.7707,4.7727,4.776,4.779,4.7798,4.7804,4.7827,4.7836,4.7733,4.7733,4.7733,0,4.732,4.7378,4.7387,4.7429,4.7451,4.7446,4.749,4.751,4.755,4.7564,4.755,4.7622,4.764,4.7699,4.7716,4.7731,4.7741,4.7723,4.7796,4.7803,4.7809,4.7831,4.784,4.7735,4.7734,4.7734,4.7734,0,4.7405,4.7446,4.7478,4.752,4.7545,4.7588,4.7601,4.7626,4.7626,4.7637,4.7687,4.7709,4.7745,4.7759,4.7759,4.7818,4.7809,4.7796,4.7769,4.7821,4.7841,4.785,4.7738,4.7737,4.7736,4.7736,0,0,4.7477,4.7525,4.7536,4.7555,4.7591,4.7621,4.7663,4.7701,4.7721,4.7749,4.7782,4.7832,4.782,4.784,4.7842,4.7869,4.792,4.7852,4.7853,4.7862,4.7984,4.7992,4.8001,4.7916,4.7917,4.7919,4.7981,0,4.754,4.7616,4.7626,4.7692,4.7729,4.7725,4.7761,4.7786,4.7798,4.7828,4.784,4.7875,4.7858,4.787,4.7896,4.7909,4.7944,4.7905,4.7944,4.7945,4.7935,4.8012,4.8021,4.8078,4.7989,4.799,4.7991,0,4.7623,4.7656,4.7727,4.7758,4.7774,4.7807,4.7841,4.7872,4.7899,4.7906,4.7929,4.7928,4.7969,4.7943,4.7997,4.797,4.7987,4.7996,4.7998,4.8,4.7969,4.8013,4.8097,4.8104,4.8004,4.8003,4.8002,0,4.7666,4.7728,4.7778,4.7795,4.7833,4.7856,4.7872,4.7899,4.792,4.795,4.7964,4.7997,4.8015,4.804,4.8047,4.8028,4.8101,4.8076,4.8105,4.8105,4.8118,4.8117,4.8203,4.8134,4.8133,4.8133,4.8133,0,4.7733,4.7776,4.7798,4.7829,4.7876,4.7886,4.7932,4.7947,4.7971,4.8002,4.8001,4.803,4.804,4.807,4.8076,4.8119,4.8128,4.8132,4.8133,4.8131,4.813,4.814,4.8135,4.8136,4.8135,4.8135,4.8134,0,4.7788,4.7805,4.7859,4.7892,4.7901,4.7934,4.7961,4.7989,4.8002,4.8042,4.8051,4.807,4.8105,4.8116,4.8158,4.8162,4.8213,4.8211,4.8204,4.8203,4.8231,4.8227,4.8324,4.8337,4.8261,4.8262,4.8263,0,4.7829,4.7862,4.7899,4.7922,4.794,4.7976,4.7998,4.801,4.8033,4.8068,4.8091,4.8127,4.8156,4.8213,4.8228,4.8261,4.8258,4.829,4.8262,4.8259,4.8255,4.8252,4.8255,4.8294,4.8295,4.8295,4.8296,0,4.7898,4.7906,4.794,4.7977,4.8005,4.8035,4.8063,4.808,4.8095,4.8121,4.8159,4.8182,4.8227,4.8261,4.8294,4.8308,4.8304,4.8305,4.8313,4.831,4.8304,4.8305,4.8215,4.8302,4.8301,4.8301,4.83,4.83,4.7946,4.7975,4.8006,4.8044,4.8067,4.8093,4.8122,4.8139,4.8171,4.8209,4.8214,4.8254,4.828,4.8324,4.8341,4.8371,4.8361,4.8373,4.8376,4.8378,4.8379,4.8302,4.8377,4.8377,4.8377,4.8376,4.8376,0,4.8013,4.8034,4.8069,4.811,4.8139,4.8136,4.8167,4.8191,4.8227,4.8253,4.8283,4.8326,4.836,4.8379,4.8412,4.8432,4.8431,4.8441,4.8438,4.8441,4.8387,4.8376,4.8441,4.8441,4.8441,4.8441,4.8441,4.8441,4.8052,4.8101,4.8112,4.8171,4.819,4.8232,4.8249,4.8273,4.8294,4.8343,4.8372,4.8385,4.8408,4.8443,4.8474,4.8478,4.8489,4.85,4.8503,4.8451,4.8445,4.8438,4.8427,4.8503,4.8503,4.8554,4.8554,4.8554]}]]